This is the latest recevied weather packets stored in our database for station/object NG7N. If no packets are shown the sender has not sent any weather packets the latest 1 day(s).
| Time | Temp. | Humidity | Pressure | Rain* | Wind** | Luminosity | Snow |
|---|---|---|---|---|---|---|---|
| 1778018368 | 16.11° C | 75% | 1016.4 hPa | 0 mm | 0.89 m/s, 177° | - | - |
| 1778017767 | 16.11° C | 75% | 1016.4 hPa | 0 mm | 1.79 m/s, 181° | - | - |
| 1778017468 | 16.11° C | 75% | 1016.7 hPa | 0 mm | 1.34 m/s, 122° | - | - |
| 1778017167 | 16.11° C | 76% | 1016.7 hPa | 0 mm | 1.34 m/s, 169° | - | - |
| 1778016867 | 16.11° C | 76% | 1016.7 hPa | 0 mm | 1.79 m/s, 172° | - | - |
| 1778015068 | 15.56° C | - | - | 0 mm | 0.89 m/s, 198° | - | - |
| 1778015067 | 15.56° C | 78% | 1016.6 hPa | 0 mm | 0.89 m/s, 158° | - | - |
| 1778014167 | 15.56° C | 76% | 1016.7 hPa | 0 mm | 0.89 m/s, 159° | - | - |
| 1778013867 | 15.56° C | 77% | 1016.7 hPa | 0 mm | 1.34 m/s, 145° | - | - |
| 1778012067 | 15° C | 78% | 1016.6 hPa | 0 mm | 1.34 m/s, 114° | - | - |
| 1778011467 | 15° C | 78% | 1016.6 hPa | 0 mm | 0.89 m/s, 133° | - | - |
| 1778011168 | 15° C | 79% | 1016.7 hPa | 0 mm | 0 m/s | - | - |
| 1778010867 | 15° C | 80% | 1016.7 hPa | 0 mm | 0.45 m/s, 186° | - | - |
| 1778010568 | 14.44° C | 79% | 1016.7 hPa | 0 mm | 1.34 m/s, 205° | - | - |
| 1778009367 | 14.44° C | 80% | 1016.7 hPa | 0 mm | 1.79 m/s, 141° | - | - |
| 1778006367 | 13.89° C | 81% | 1016.5 hPa | 0 mm | 2.24 m/s, 155° | - | - |
| 1778004867 | 13.89° C | 82% | 1016.3 hPa | 0 mm | 1.34 m/s, 167° | - | - |
| 1778000968 | 13.33° C | 84% | 1016.3 hPa | 0 mm | 0.89 m/s, 158° | - | - |
| 1778000367 | 12.78° C | 85% | 1016.2 hPa | 0 mm | 0.45 m/s, 183° | - | - |
| 1777999467 | 12.78° C | 84% | 1016.2 hPa | 0 mm | 1.34 m/s, 187° | - | - |
| 1777999167 | 12.78° C | 84% | 1016.2 hPa | 0 mm | 1.34 m/s, 155° | - | - |
| 1777997703 | 12.78° C | 85% | 1016 hPa | 0 mm | 0.45 m/s, 209° | - | - |
| 1777997668 | 12.78° C | 85% | 1016 hPa | 0 mm | 0.45 m/s, 209° | - | - |
| 1777997367 | 12.78° C | 85% | 1016 hPa | 0 mm | 0 m/s | - | - |
| 1777996467 | 12.78° C | 85% | 1015.9 hPa | 0 mm | 0.89 m/s, 185° | - | - |
* Rain latest hour (hover to see other rain measurements)
** Current wind speed in m/s (hover to see current wind gust speed)